Вернуться в каталог

CZ-6A DEB

АктивенPO
NORAD 60965·DEBRIS·🇨🇳 China

Запущен Aug 6, 2024 с Taiyuan Satellite Launch Center

Loading…

Ближайшие Пролёты (ближайшие 24 часа)

TLE

СвежийSource: Space-Track

Эпоха: Sep 14, 2026, 06:05 UTC

1 60965U 24140LQ  26257.25355968  .00003515  00000-0  28898-3 0  9994
2 60965  88.9234 247.9176 0168605 186.4034 173.5044 14.88345530111637

Отслеживайте CZ-6A DEB в реальном времени с AllMySat

Download on the App Store